TimeEST,TemperatureF,Dew PointF,Humidity,Sea Level PressureIn,VisibilityMPH,Wind Direction,Wind SpeedMPH,Gust SpeedMPH,PrecipitationIn,Events,Conditions,WindDirDegrees,DateUTC
12:56 AM,44.8,37.8,76,30.12,10.0,SW,5.8,-,N/A,,Mostly Cloudy,230,2013-01-20 05:56:00
1:56 AM,46.2,37.9,73,30.10,10.0,SW,9.2,-,N/A,,Scattered Clouds,230,2013-01-20 06:56:00
2:56 AM,46.2,37.9,73,30.08,10.0,SW,12.7,-,N/A,,Scattered Clouds,230,2013-01-20 07:56:00
3:56 AM,45.9,35.2,66,30.06,10.0,SW,10.4,-,N/A,,Scattered Clouds,230,2013-01-20 08:56:00
4:56 AM,45.7,34.3,65,30.05,10.0,SW,11.5,-,N/A,,Scattered Clouds,220,2013-01-20 09:56:00
5:56 AM,45.1,35.1,68,30.04,10.0,SW,12.7,-,N/A,,Scattered Clouds,220,2013-01-20 10:56:00
6:56 AM,46.4,35.8,67,30.02,10.0,SW,13.8,-,N/A,,Mostly Cloudy,220,2013-01-20 11:56:00
7:56 AM,46.0,35.4,66,30.02,10.0,SW,12.7,-,N/A,,Scattered Clouds,230,2013-01-20 12:56:00
8:56 AM,46.6,36.5,68,30.03,10.0,WSW,15.0,-,N/A,,Scattered Clouds,250,2013-01-20 13:56:00
9:56 AM,50.0,36.0,59,30.03,10.0,WSW,13.8,-,N/A,,Scattered Clouds,240,2013-01-20 14:56:00
10:56 AM,54.7,34.9,47,30.00,10.0,WSW,15.0,25.3,N/A,,Partly Cloudy,250,2013-01-20 15:56:00
11:56 AM,58.6,37.2,45,29.96,10.0,SW,17.3,23.0,N/A,,Partly Cloudy,230,2013-01-20 16:56:00
12:56 PM,61.0,37.8,42,29.93,10.0,WSW,18.4,24.2,N/A,,Partly Cloudy,240,2013-01-20 17:56:00
1:56 PM,62.8,38.5,41,29.91,10.0,WSW,15.0,23.0,N/A,,Partly Cloudy,240,2013-01-20 18:56:00
2:56 PM,62.8,39.4,42,29.91,10.0,WSW,17.3,28.8,N/A,,Partly Cloudy,250,2013-01-20 19:56:00
3:56 PM,61.7,36.5,39,29.92,10.0,West,18.4,26.5,N/A,,Partly Cloudy,270,2013-01-20 20:56:00
4:56 PM,60.1,36.5,41,29.94,10.0,West,12.7,-,N/A,,Partly Cloudy,260,2013-01-20 21:56:00
5:56 PM,58.5,35.6,42,29.96,10.0,West,10.4,-,N/A,,Partly Cloudy,270,2013-01-20 22:56:00
6:56 PM,55.0,33.8,45,29.99,10.0,WSW,8.1,-,N/A,,Partly Cloudy,250,2013-01-20 23:56:00
7:56 PM,54.1,32.0,43,30.02,10.0,West,8.1,-,N/A,,Partly Cloudy,280,2013-01-21 00:56:00
8:56 PM,53.6,30.6,41,30.03,10.0,West,11.5,-,N/A,,Partly Cloudy,280,2013-01-21 01:56:00
9:56 PM,52.9,30.0,42,30.04,10.0,West,6.9,-,N/A,,Clear,280,2013-01-21 02:56:00
10:56 PM,51.1,28.9,43,30.06,10.0,WNW,8.1,-,N/A,,Clear,290,2013-01-21 03:56:00
11:56 PM,49.3,31.3,50,30.07,10.0,North,5.8,-,N/A,,Clear,10,2013-01-21 04:56:00